Wind_Speed
23 23 22 21 24 21 21 22 21 19 18 17 16 16 14 12 11 9 9 8 7 7 6 6 5 5 6 7 8 8 8 9 9 9 9 9 9 8 8 8 9 10 10 10 9 9 10 10 10
23 23 22 24 22 21 22 23 22 20 19 19 18 17 16 14 12 11 9 8 8 7 6 5 5 5 6 7 8 8 9 9 9 9 10 9 9 9 9 10 10 10 11 10 11 10 11 10 10
23 23 24 24 22 22 23 24 23 22 21 20 20 19 17 16 14 12 10 9 8 7 6 5 5 5 6 7 8 8 8 9 9 9 10 9 10 10 10 10 10 10 11 11 11 12 11 10 10
22 23 25 23 22 23 24 24 24 24 23 22 21 20 18 17 15 13 11 10 9 7 6 5 5 6 6 7 8 8 9 9 9 9 9 9 9 9 9 9 10 10 10 10 11 11 11 10 10
21 24 23 22 23 23 24 24 25 25 24 23 22 21 19 18 16 14 13 11 9 8 7 5 4 5 6 7 7 8 8 8 7 8 8 9 9 9 9 9 9 10 9 9 11 11 10 10 9
22 22 20 21 22 24 24 24 26 26 25 24 23 21 20 18 17 15 14 12 10 9 7 6 5 5 6 6 6 7 7 7 7 7 7 8 9 9 9 9 9 10 10 10 11 10 10 9 9
19 19 18 19 21 23 23 24 25 26 26 25 23 22 21 19 17 16 14 13 12 10 8 8 6 5 6 6 6 6 7 7 7 8 8 8 9 9 9 9 10 10 10 10 11 10 9 9 9
16 17 16 18 20 21 22 23 24 25 25 25 24 23 22 20 18 17 15 14 12 11 10 8 7 6 6 6 6 6 6 6 7 8 9 8 9 9 9 9 9 9 10 10 10 9 9 9 8
15 15 14 16 19 20 21 23 23 24 24 24 24 23 22 21 19 18 16 15 13 12 11 9 7 6 6 5 5 5 6 6 7 7 8 7 8 8 8 8 8 9 9 9 9 9 8 8 7
13 12 12 14 17 19 21 22 22 23 24 24 23 23 22 22 20 19 17 15 14 13 12 10 8 7 6 6 5 5 5 6 6 6 7 7 7 7 8 8 8 8 9 8 8 8 7 7 7
10 11 12 13 15 17 19 20 21 22 22 22 22 22 22 22 21 20 18 16 15 13 12 11 10 8 7 6 5 5 5 5 5 5 6 6 6 6 7 7 7 7 8 8 8 7 6 6 5
8 9 10 12 13 15 17 18 19 20 20 20 21 21 21 21 20 19 18 17 15 14 13 12 10 9 8 6 6 5 5 5 5 5 5 5 6 6 6 7 6 7 7 6 6 6 6 6 5
6 6 8 9 11 13 14 16 17 18 18 19 19 20 21 20 20 19 18 17 16 14 14 13 12 10 9 7 6 5 5 5 5 4 4 4 5 6 6 6 5 5 5 5 6 6 6 5 4
4 5 5 7 9 11 12 14 14 15 16 16 17 18 19 19 19 19 18 17 16 14 13 13 12 11 9 8 6 6 5 4 4 4 4 4 4 5 5 5 4 4 5 5 5 5 5 5 4
2 2 3 4 6 8 10 12 12 12 13 14 15 17 18 18 18 18 17 17 16 15 14 13 12 11 10 8 7 6 5 4 4 3 4 3 3 4 4 4 3 4 4 4 4 5 4 4 3
3 0 1 2 3 5 7 9 9 10 11 12 13 14 16 17 17 16 17 17 17 16 14 13 13 12 11 10 9 7 6 4 3 3 3 3 2 2 3 3 4 4 4 4 4 4 5 5 4
4 3 3 2 1 3 5 6 7 8 9 10 11 12 14 15 15 15 15 16 16 16 15 14 13 12 11 10 9 8 7 5 3 3 2 2 1 1 1 2 4 4 4 5 5 5 5 5 5
8 7 6 5 3 2 2 4 5 5 7 8 10 11 12 13 13 13 14 15 15 15 14 13 13 12 11 9 9 8 7 6 4 3 3 2 1 0 1 2 3 4 4 5 5 5 6 6 6
12 9 8 7 5 3 2 2 3 4 5 7 9 10 11 11 11 12 12 13 14 13 14 13 12 12 12 10 9 8 7 7 5 4 3 3 2 1 2 2 3 4 4 5 6 6 6 6 7
13 11 10 9 8 6 4 4 4 4 4 6 7 9 10 10 11 11 11 12 12 12 13 13 12 12 11 10 9 8 8 7 6 5 4 3 3 2 2 2 3 3 4 5 6 6 7 7 7
15 13 12 11 10 8 7 6 6 5 5 6 7 9 10 10 11 10 11 12 12 11 12 12 12 12 11 10 10 9 8 7 6 5 4 4 4 3 3 3 3 3 5 6 7 7 8 8 8
17 16 14 13 10 10 9 7 8 7 7 8 8 9 10 10 10 9 10 11 11 10 11 11 12 11 11 10 10 9 8 7 6 5 5 5 4 4 4 4 3 3 4 6 7 8 9 9 9
20 18 16 15 13 12 12 9 9 9 8 9 9 10 11 11 11 9 9 9 9 10 10 11 11 11 11 11 10 9 8 7 7 6 6 6 5 4 4 4 4 4 5 6 8 9 9 10 10
22 20 19 17 16 15 14 12 11 11 10 10 11 11 12 12 11 10 9 9 10 10 10 11 11 10 10 10 9 9 8 7 7 7 7 7 6 6 5 5 5 5 6 6 7 8 9 9 10
23 21 19 17 17 17 17 15 13 13 12 12 12 12 13 12 11 10 10 10 11 10 11 11 11 11 11 10 10 9 9 8 8 8 7 7 7 6 6 6 6 6 7 8 8 9 9 10 10
24 22 21 18 16 16 18 16 14 14 14 14 14 13 12 11 11 11 11 11 11 11 11 11 11 13 12 11 11 10 9 9 8 8 8 8 7 7 7 7 8 8 8 8 9 9 10 10 11
27 25 23 21 20 18 17 17 15 15 15 15 15 14 12 12 12 12 12 11 12 12 12 11 12 12 12 12 11 11 10 9 9 9 8 8 8 8 7 8 8 9 9 9 9 9 10 10 12
28 26 25 23 22 20 19 18 16 15 15 14 14 14 13 13 13 13 12 12 13 13 13 12 12 12 12 12 12 12 11 10 10 10 9 9 9 9 9 9 9 10 10 10 11 11 12 13 13
28 28 27 25 24 21 20 19 19 17 16 15 15 14 14 14 14 14 14 15 15 15 15 14 13 12 13 13 13 12 11 10 10 10 10 10 10 10 10 11 11 11 12 13 14 14 14 15 15
29 28 27 26 26 25 22 20 21 19 17 16 16 15 15 15 15 15 16 17 17 16 16 16 15 15 15 14 13 12 11 11 10 11 11 11 11 11 12 12 13 12 13 14 15 16 16 17 17
Wind_Direction
65 63 63 65 62 62 63 63 64 66 66 66 66 65 65 65 68 72 73 77 79 82 86 85 90 105 113 119 120 119 117 115 116 115 114 114 119 117 113 122 127 127 125 124 127 127 123 124 123
65 63 62 61 62 60 61 63 64 65 65 65 65 63 61 61 65 68 72 76 78 77 79 84 91 102 115 118 119 119 120 118 116 115 115 115 117 115 118 121 124 124 125 126 126 125 125 124 122
65 63 62 61 62 62 62 64 64 64 63 63 63 61 58 57 59 63 68 72 74 73 77 85 91 107 116 116 114 114 116 118 117 119 116 119 118 114 119 116 119 121 125 127 127 126 125 123 122
65 64 60 59 59 62 63 63 62 61 61 61 61 59 57 55 55 58 62 65 67 66 66 73 87 109 113 111 112 115 118 120 118 119 117 118 120 114 117 118 120 120 122 124 127 123 121 120 119
66 63 60 58 59 61 63 62 60 59 58 59 60 58 56 54 53 55 58 60 62 61 59 63 81 104 110 111 113 115 117 118 117 114 116 115 117 119 118 121 124 123 124 125 127 127 126 124 123
67 66 65 62 60 61 62 62 61 60 58 57 57 56 55 54 52 52 55 57 58 58 58 62 81 98 105 110 114 117 117 120 121 118 117 117 120 122 120 121 123 122 121 126 128 129 130 128 126
71 70 67 64 62 61 61 61 60 58 56 55 55 54 53 53 52 51 52 53 54 55 58 63 76 94 105 113 116 117 118 119 120 122 123 120 121 121 121 123 126 124 126 130 133 129 132 131 129
70 68 61 62 62 61 61 60 58 57 55 54 53 53 52 52 51 50 51 51 51 53 57 62 69 87 99 109 116 118 120 120 121 123 123 122 122 122 121 123 127 125 124 126 132 130 130 129 127
70 68 63 64 63 62 61 60 58 57 55 53 52 51 50 50 49 49 50 51 50 50 51 56 63 79 89 99 111 117 120 117 121 124 128 127 126 125 128 128 131 130 129 128 130 128 128 127 127
75 72 66 65 65 64 62 60 57 56 55 53 52 51 51 49 49 48 47 46 47 49 50 54 60 69 77 83 97 111 118 119 121 127 134 130 128 130 132 134 136 138 136 132 131 130 128 124 122
75 75 70 66 65 65 63 59 57 55 54 52 51 51 50 49 47 45 44 43 45 47 48 49 52 56 63 72 88 102 110 118 124 126 133 138 139 137 138 138 139 140 139 136 138 138 136 133 126
77 75 70 65 63 63 63 60 57 55 53 51 49 48 47 46 45 44 42 41 42 44 46 47 48 51 58 67 77 90 103 112 120 124 127 141 149 149 147 145 144 144 144 145 146 149 150 148 143
84 80 72 64 60 61 61 59 57 55 53 52 48 46 45 44 43 41 40 40 42 43 43 45 48 50 53 62 69 79 97 108 111 119 125 139 151 153 155 157 153 157 158 160 162 162 161 160 155
104 84 79 68 59 58 59 57 55 53 51 49 46 43 41 40 40 38 36 38 40 41 42 43 45 47 50 55 61 69 81 98 105 114 121 124 144 155 162 170 175 181 180 179 183 183 179 175 171
149 83 68 68 59 56 56 53 51 48 48 45 43 40 38 36 35 35 34 34 36 38 41 43 41 44 47 49 54 58 68 81 99 112 122 117 129 164 171 178 190 199 205 201 198 194 193 194 193
191 160 14 29 56 54 52 43 41 42 41 40 37 35 32 30 30 32 32 31 32 34 38 40 39 41 44 48 50 51 51 58 77 96 113 119 115 143 176 185 197 206 209 212 209 207 205 207 211
228 234 255 287 10 38 46 43 34 35 35 34 30 28 26 25 25 27 28 27 29 31 32 36 38 38 40 42 43 42 40 36 43 56 75 93 100 104 161 200 210 209 206 207 212 216 218 222 229
231 232 249 267 287 333 21 25 24 27 23 21 20 20 20 19 19 20 22 23 23 25 26 29 31 32 33 31 31 28 28 29 29 24 23 34 29 274 244 222 218 217 209 209 217 223 230 233 240
231 236 244 256 267 285 298 320 348 4 5 7 9 9 9 8 9 12 14 16 17 18 20 22 22 25 25 23 19 19 20 18 14 9 6 355 338 314 275 259 231 229 227 225 227 235 239 243 246
237 238 247 254 262 270 276 288 305 325 340 346 352 356 357 358 358 1 4 7 9 11 13 14 15 17 18 16 12 11 12 10 5 358 353 344 332 307 287 275 261 248 245 245 244 247 249 252 252
239 238 244 252 265 268 272 284 291 299 313 326 332 338 344 345 345 348 352 357 359 1 3 7 8 8 7 7 7 4 4 6 3 358 352 343 330 314 293 280 276 267 258 254 252 256 255 256 259
239 243 245 252 263 268 268 271 282 288 297 309 316 322 329 336 338 339 343 349 352 353 354 357 0 360 358 358 357 356 356 358 358 356 352 345 333 315 308 294 279 287 280 265 257 260 261 258 260
238 242 244 248 254 258 268 262 269 277 284 295 303 311 319 326 330 329 332 340 344 344 346 347 349 352 353 352 350 349 348 348 346 343 337 332 325 315 306 298 291 283 286 282 272 268 265 264 264
240 244 248 252 255 257 261 258 262 270 277 287 294 303 309 315 319 320 322 327 331 334 337 339 341 344 346 348 346 344 341 339 337 336 334 327 316 308 304 298 294 290 289 289 283 278 274 274 271
238 241 247 251 253 257 261 258 258 264 272 279 284 292 300 303 307 308 310 315 321 326 332 334 336 339 337 341 342 338 335 331 326 325 327 326 316 304 297 291 290 292 294 293 294 293 286 281 280
237 237 237 241 249 257 266 260 259 265 270 273 278 284 290 293 295 297 301 307 312 316 322 327 331 331 331 330 333 334 332 329 325 321 321 322 320 312 298 288 284 287 291 295 298 300 297 289 283
238 237 237 242 245 246 255 264 267 267 270 270 274 277 279 283 288 291 294 301 305 306 311 315 321 324 323 325 329 332 329 325 322 319 316 316 316 312 307 297 286 288 291 297 302 303 302 299 293
236 238 237 237 242 247 256 263 267 270 274 274 271 269 272 276 282 286 289 293 298 300 302 306 309 315 321 323 324 324 322 317 316 314 312 310 310 313 310 304 298 292 293 296 299 300 300 300 297
236 237 239 240 241 245 252 259 267 269 269 270 267 264 266 270 274 278 282 288 293 296 300 300 302 309 314 315 319 320 316 314 314 310 308 306 306 307 308 305 302 296 293 294 296 297 298 298 297
237 238 240 241 246 248 248 254 264 266 265 264 262 262 264 267 270 275 279 284 288 290 290 291 295 299 304 308 312 315 312 310 310 309 305 304 304 302 302 302 303 303 300 300 301 300 298 299 298
Height
5910 5908 5907 5906 5906 5906 5902 5900 5898 5896 5894 5893 5891 5890 5889 5888 5888 5889 5886 5884 5884 5883 5883 5882 5882 5882 5881 5881 5881 5881 5881 5881 5882 5882 5882 5882 5882 5882 5883 5883 5884 5884 5884 5885 5886 5887 5888 5889 5890
5912 5911 5911 5909 5910 5908 5905 5902 5900 5898 5897 5894 5893 5891 5890 5889 5888 5887 5886 5886 5885 5884 5884 5884 5883 5883 5883 5882 5882 5882 5882 5883 5883 5883 5883 5883 5883 5883 5883 5884 5885 5886 5886 5886 5887 5888 5889 5890 5891
5915 5914 5913 5913 5912 5910 5908 5905 5902 5900 5898 5896 5895 5893 5892 5891 5890 5888 5888 5887 5887 5886 5885 5885 5885 5884 5884 5883 5883 5883 5884 5884 5884 5884 5884 5885 5885 5885 5885 5885 5886 5887 5887 5888 5889 5890 5891 5891 5892
5918 5917 5917 5917 5914 5912 5910 5907 5905 5902 5900 5898 5896 5895 5893 5892 5891 5890 5889 5888 5888 5887 5887 5886 5886 5886 5885 5885 5885 5885 5885 5885 5885 5885 5886 5886 5886 5886 5886 5886 5887 5888 5889 5889 5890 5891 5892 5893 5894
5921 5921 5922 5920 5917 5915 5912 5909 5907 5905 5903 5901 5899 5897 5896 5895 5893 5892 5891 5890 5890 5889 5888 5888 5887 5887 5887 5886 5886 5886 5887 5887 5887 5887 5887 5887 5887 5887 5888 5888 5889 5889 5890 5890 5891 5893 5893 5894 5895
5925 5926 5927 5924 5920 5917 5915 5912 5910 5907 5906 5903 5901 5900 5898 5897 5896 5895 5893 5892 5891 5890 5889 5889 5888 5888 5888 5888 5888 5888 5888 5888 5888 5888 5888 5888 5889 5889 5889 5890 5890 5891 5891 5892 5893 5894 5895 5895 5896
5929 5930 5928 5926 5923 5921 5918 5915 5913 5910 5908 5906 5904 5903 5901 5899 5898 5897 5895 5894 5893 5892 5891 5890 5890 5889 5889 5889 5890 5890 5890 5890 5889 5889 5889 5890 5890 5890 5890 5891 5892 5892 5893 5894 5894 5895 5896 5896 5897
5931 5933 5932 5930 5927 5924 5921 5918 5916 5913 5911 5910 5908 5906 5904 5902 5901 5899 5898 5896 5895 5894 5893 5892 5891 5891 5890 5890 5890 5891 5891 5891 5890 5890 5890 5891 5891 5891 5891 5892 5893 5894 5894 5895 5896 5896 5897 5898 5899
5933 5937 5935 5932 5929 5927 5924 5921 5919 5917 5914 5912 5911 5909 5907 5905 5903 5902 5900 5899 5898 5896 5895 5894 5893 5892 5892 5891 5891 5891 5891 5891 5891 5891 5892 5892 5892 5893 5893 5893 5894 5895 5895 5896 5897 5897 5898 5899 5900
5936 5939 5936 5934 5931 5929 5926 5924 5922 5919 5917 5916 5914 5912 5910 5908 5906 5904 5903 5901 5900 5898 5897 5896 5895 5894 5893 5892 5892 5892 5892 5892 5892 5892 5893 5893 5893 5894 5894 5894 5895 5895 5896 5897 5898 5898 5899 5900 5900
5938 5938 5937 5935 5933 5931 5928 5926 5924 5922 5920 5919 5917 5915 5912 5911 5909 5907 5905 5903 5902 5900 5899 5897 5896 5895 5894 5893 5893 5893 5893 5893 5893 5893 5894 5894 5894 5895 5895 5896 5896 5896 5897 5898 5898 5899 5900 5901 5901
5939 5939 5938 5937 5935 5933 5931 5929 5927 5925 5924 5922 5919 5917 5915 5914 5912 5910 5908 5906 5904 5902 5901 5899 5898 5896 5895 5894 5894 5894 5894 5894 5894 5894 5894 5895 5895 5896 5896 5896 5897 5897 5897 5898 5899 5900 5900 5901 5902
5941 5940 5939 5938 5936 5935 5933 5931 5930 5927 5926 5924 5922 5920 5918 5917 5915 5913 5910 5908 5906 5904 5903 5901 5899 5898 5897 5896 5895 5895 5895 5895 5895 5895 5895 5895 5895 5896 5896 5897 5897 5898 5898 5899 5899 5900 5901 5901 5902
5941 5941 5940 5939 5938 5936 5935 5934 5932 5930 5928 5926 5925 5923 5921 5919 5917 5915 5913 5911 5909 5906 5905 5903 5901 5900 5898 5897 5897 5896 5896 5896 5896 5895 5895 5895 5895 5896 5897 5897 5898 5898 5899 5899 5899 5900 5901 5901 5902
5941 5942 5942 5940 5939 5938 5937 5936 5934 5932 5930 5929 5927 5925 5924 5922 5920 5918 5916 5913 5911 5909 5907 5905 5903 5902 5900 5899 5898 5897 5897 5897 5896 5896 5896 5896 5896 5896 5896 5897 5898 5898 5899 5899 5899 5900 5900 5901 5902
5941 5942 5943 5942 5940 5939 5940 5939 5936 5934 5932 5930 5929 5927 5926 5924 5922 5920 5918 5915 5913 5911 5909 5907 5905 5904 5902 5901 5900 5899 5898 5897 5897 5897 5896 5896 5896 5896 5896 5897 5898 5898 5898 5898 5899 5899 5900 5900 5901
5941 5943 5944 5942 5941 5940 5940 5939 5937 5935 5933 5932 5930 5929 5927 5926 5924 5922 5920 5917 5915 5913 5911 5909 5907 5906 5904 5902 5901 5900 5899 5898 5898 5897 5897 5897 5897 5897 5897 5897 5897 5897 5898 5898 5898 5899 5899 5900 5900
5942 5942 5942 5941 5940 5940 5939 5939 5938 5936 5934 5933 5931 5930 5928 5927 5925 5923 5921 5919 5917 5915 5913 5911 5909 5907 5905 5904 5902 5901 5900 5899 5898 5898 5897 5897 5897 5897 5896 5896 5896 5896 5897 5897 5898 5898 5899 5899 5899
5938 5939 5940 5940 5939 5939 5939 5939 5938 5936 5935 5934 5932 5931 5929 5928 5926 5924 5922 5920 5918 5916 5914 5912 5911 5909 5907 5905 5904 5902 5901 5900 5899 5898 5898 5897 5896 5896 5896 5896 5896 5896 5896 5896 5897 5897 5897 5898 5898
5935 5937 5938 5938 5938 5938 5938 5938 5937 5936 5935 5934 5932 5931 5930 5928 5927 5925 5923 5921 5919 5917 5916 5914 5912 5910 5908 5906 5904 5903 5901 5900 5899 5898 5897 5897 5896 5895 5895 5895 5895 5895 5895 5895 5896 5896 5896 5896 5897
5932 5934 5936 5936 5936 5936 5937 5938 5937 5936 5935 5933 5932 5931 5930 5928 5927 5925 5923 5922 5920 5918 5916 5915 5913 5911 5909 5907 5905 5903 5902 5900 5899 5898 5897 5896 5896 5895 5894 5894 5894 5894 5894 5894 5894 5894 5895 5895 5895
5929 5931 5932 5933 5934 5936 5936 5938 5936 5935 5934 5932 5931 5930 5929 5928 5926 5925 5923 5922 5920 5918 5917 5915 5913 5911 5909 5907 5905 5903 5902 5900 5899 5898 5897 5896 5895 5894 5894 5893 5893 5892 5892 5892 5892 5892 5892 5892 5892
5926 5927 5929 5930 5932 5933 5934 5936 5937 5933 5932 5932 5930 5929 5928 5927 5926 5924 5923 5921 5920 5918 5917 5915 5913 5911 5909 5907 5905 5903 5901 5900 5899 5898 5897 5895 5894 5893 5893 5892 5892 5891 5891 5890 5890 5890 5890 5889 5889
5921 5923 5925 5927 5929 5931 5931 5932 5933 5932 5931 5930 5929 5928 5927 5926 5925 5923 5922 5921 5919 5918 5916 5914 5912 5910 5908 5906 5905 5903 5901 5900 5898 5897 5896 5894 5893 5892 5891 5891 5890 5890 5889 5889 5888 5888 5888 5887 5887
5917 5921 5924 5925 5926 5928 5927 5927 5929 5928 5928 5927 5927 5926 5925 5924 5923 5922 5921 5919 5918 5916 5915 5913 5911 5909 5907 5906 5904 5902 5900 5899 5897 5896 5894 5893 5892 5891 5890 5889 5889 5889 5888 5887 5887 5886 5885 5885 5884
5912 5916 5920 5923 5925 5925 5922 5923 5925 5924 5924 5924 5924 5923 5923 5922 5921 5920 5919 5917 5916 5915 5913 5912 5910 5908 5906 5904 5903 5901 5899 5897 5896 5895 5893 5892 5891 5889 5888 5888 5887 5887 5886 5886 5885 5884 5883 5882 5882
5906 5910 5914 5917 5918 5920 5921 5919 5920 5920 5920 5920 5920 5920 5920 5919 5918 5917 5916 5915 5914 5913 5911 5910 5908 5906 5904 5903 5901 5899 5897 5896 5894 5893 5892 5890 5889 5888 5887 5886 5885 5885 5884 5884 5883 5882 5880 5879 5879
5901 5904 5907 5911 5913 5915 5916 5916 5917 5916 5916 5916 5916 5916 5916 5916 5915 5914 5913 5913 5912 5910 5909 5907 5906 5904 5902 5901 5899 5897 5896 5894 5893 5891 5890 5889 5887 5886 5885 5884 5883 5882 5882 5881 5880 5879 5878 5876 5875
5895 5898 5901 5904 5907 5910 5913 5915 5912 5911 5912 5912 5912 5912 5912 5912 5912 5911 5910 5910 5909 5907 5906 5904 5902 5901 5900 5898 5896 5895 5893 5892 5891 5889 5888 5887 5886 5884 5883 5882 5881 5880 5879 5878 5877 5876 5874 5873 5872
5889 5892 5895 5899 5900 5902 5906 5911 5906 5906 5907 5908 5908 5908 5908 5908 5908 5907 5907 5906 5905 5904 5902 5901 5900 5898 5897 5895 5894 5892 5891 5890 5888 5887 5885 5884 5883 5882 5881 5880 5878 5878 5876 5875 5874 5872 5871 5870 5868